Location: Newark
(36.0797°N, 3.9744°E)
Time: 15:20:54
(UTC+00:00)

Tiros 1 - Pass Details

Date: 14 December 2019
Orbit: 630 x 664 km, 48.4° (Epoch: 18 January)

Event Time Altitude Azimuth Distance (km) Brightness Sun altitude
Exits shadow 04:08:13 28° 53° (NE) 1,204 8.8 -31.1°
Drops below altitude 10° 04:10:29 10° 54° (NE) 2,042 10.2 -30.7°
Sets 04:12:48 0° 54° (NE) 2,948 11.2 -30.2°
